This is the latest recevied weather packets stored in our database for station/object N5ATR. If no packets are shown the sender has not sent any weather packets the latest 10 day(s).
| Time | Temp. | Humidity | Pressure | Rain* | Wind** | Luminosity | Snow |
|---|---|---|---|---|---|---|---|
| 1788535054 | 18.33° C | 69% | 1023 hPa | 0 mm | - | 126 W/m² | - |
| 1788534753 | 18.33° C | 70% | 1023.3 hPa | 0 mm | - | 109 W/m² | - |
| 1788534450 | 18.33° C | 70% | 1023.1 hPa | 0 mm | - | 96 W/m² | - |
| 1788534144 | 18.33° C | 70% | 1023.4 hPa | 0 mm | - | 80 W/m² | - |
| 1788533843 | 18.33° C | 70% | 1023 hPa | 0 mm | - | 74 W/m² | - |
| 1788533538 | 18.33° C | 68% | 1023.1 hPa | 0 mm | - | 71 W/m² | - |
| 1788533234 | 18.89° C | 65% | 1023 hPa | 0 mm | - | 69 W/m² | - |
| 1788532929 | 18.33° C | 65% | 1023.3 hPa | 0 mm | - | 52 W/m² | - |
| 1788532625 | 18.33° C | 66% | 1023.3 hPa | 0 mm | - | 43 W/m² | - |
| 1788532321 | 18.33° C | 66% | 1023 hPa | 0 mm | - | 36 W/m² | - |
| 1788532018 | 18.33° C | 64% | 1022.9 hPa | 0 mm | - | 25 W/m² | - |
| 1788531713 | 18.33° C | 64% | 1023.1 hPa | 0 mm | - | 25 W/m² | - |
| 1788531408 | 18.33° C | 65% | 1023 hPa | 0 mm | - | 33 W/m² | - |
| 1788531104 | 18.33° C | 65% | 1023 hPa | 0 mm | - | 34 W/m² | - |
| 1788530799 | 18.33° C | 65% | 1022.9 hPa | 0 mm | - | 32 W/m² | - |
| 1788530499 | 18.33° C | 64% | 1022.5 hPa | 0 mm | - | 33 W/m² | - |
| 1788530198 | 18.33° C | 64% | 1022.8 hPa | 0 mm | - | 30 W/m² | - |
| 1788529894 | 18.33° C | 63% | 1022.8 hPa | 0 mm | - | 32 W/m² | - |
| 1788529590 | 18.89° C | 63% | 1022.4 hPa | 0 mm | - | 37 W/m² | - |
| 1788529288 | 18.89° C | 63% | 1022.4 hPa | 0 mm | - | 44 W/m² | - |
| 1788528985 | 18.33° C | 63% | 1022.4 hPa | 0 mm | - | 51 W/m² | - |
| 1788528680 | 18.33° C | 63% | 1022.4 hPa | 0 mm | - | 27 W/m² | - |
| 1788528380 | 18.33° C | 63% | 1022.3 hPa | 0 mm | - | 23 W/m² | - |
| 1788528074 | 18.33° C | 63% | 1022.2 hPa | 0 mm | - | 18 W/m² | - |
| 1788527774 | 18.33° C | 63% | 1022 hPa | 0 mm | - | 15 W/m² | - |
* Rain latest hour (hover to see other rain measurements)
** Current wind speed in m/s (hover to see current wind gust speed)